User: anonymous   Login
Location: Corralito
(10.2667°N, 66.9500°W)
Time: 07:58:17
(UTC+00:00)
Language:

Cosmos 2360 Rocket - Orbit

View from above orbital plane
View from above orbital plane
View from above satellite
View from above satellite

Ground track
Ground track

The orbit data is extracted from the following two-line orbital elements,

1 25407U 98045B   23276.21868361 -.00000169  00000-0 -61604-4 0  9998
2 25407  71.0095 249.6454 0009733 293.0402  66.9695 14.15936996301590
Epoch (UTC): 03 October 2023 05:14:54
Eccentricity: 0.0009733
inclination: 71.0095°
perigee height: 832 km
apogee height: 846 km
right ascension of ascending node: 249.6454°
argument of perigee: 293.0402°
revolutions per day: 14.15936996
mean anomaly at epoch: 66.9695°
orbit number at epoch: 30159

The dashed part of the orbit path shows where the satellite is in the earth's shadow,  

DLR